Vorticity
nan nan nan nan nan nan nan nan nan nan nan nan nan nan nan nan nan nan nan nan nan nan nan nan nan nan nan nan nan nan nan nan nan nan nan nan nan nan nan nan nan nan nan
nan 7 7 9 10 7 8 9 9 7 7 7 6 6 6 7 7 7 7 8 9 5 5 4 4 4 5 5 5 5 6 5 5 5 7 7 9 12 13 9 6 7 nan
nan 7 9 7 7 6 8 10 7 7 6 6 6 7 7 7 8 7 8 11 12 6 2 3 3 4 4 4 5 6 7 7 7 6 6 6 4 5 10 14 13 6 nan
nan 9 8 12 7 7 6 6 7 7 7 7 7 8 8 7 8 9 8 8 8 8 8 -2 -0 2 7 5 5 6 8 9 8 9 8 7 5 5 4 6 12 14 nan
nan 9 6 5 7 8 7 6 6 8 7 7 8 8 8 9 8 9 10 11 9 8 2 4 3 6 6 2 5 6 10 7 9 10 8 9 8 7 5 6 6 12 nan
nan 8 6 5 8 7 6 7 7 7 8 8 9 9 8 7 10 10 10 12 5 6 7 8 6 9 4 3 4 8 5 5 10 8 8 9 9 8 7 6 6 8 nan
nan 6 5 6 8 7 7 7 7 7 9 9 9 8 10 8 7 11 10 6 7 7 7 8 8 6 4 7 10 6 9 12 8 7 8 8 9 9 9 8 8 7 nan
nan 6 6 6 7 7 6 8 9 9 8 8 7 9 7 11 6 6 9 8 9 9 6 5 8 8 8 8 5 8 14 12 7 8 9 10 9 8 9 10 10 8 nan
nan 6 6 6 6 7 7 8 9 9 8 7 8 8 8 7 8 6 7 8 9 8 9 8 6 8 7 9 7 8 10 5 5 6 10 12 9 8 8 9 11 11 nan
nan 6 6 7 7 9 8 8 8 9 8 8 10 7 8 9 8 9 9 7 8 8 9 10 9 8 7 7 8 10 10 4 3 4 5 11 13 8 8 9 10 12 nan
nan 6 8 8 7 7 8 9 9 6 10 9 7 8 10 9 8 9 8 9 8 9 9 9 9 10 9 9 8 9 6 9 2 2 5 6 9 10 8 7 9 12 nan
nan 7 9 9 11 11 9 9 8 7 9 8 8 9 9 9 9 9 8 7 9 9 8 9 9 9 10 10 9 13 5 2 1 4 7 8 7 8 8 7 6 9 nan
nan 8 7 9 8 9 11 12 10 10 7 7 8 9 9 9 8 8 8 9 9 8 9 7 9 8 8 9 8 3 9 8 6 6 11 13 7 7 8 6 6 6 nan
nan 8 7 7 9 10 11 10 7 6 8 11 11 8 7 8 8 8 8 9 9 8 6 7 9 8 10 7 7 7 8 5 7 8 8 11 10 7 8 7 5 5 nan
nan 5 7 8 9 10 13 10 7 7 7 10 13 10 7 7 8 8 9 8 9 9 8 11 8 8 8 7 7 10 9 6 7 8 7 7 8 8 11 10 6 5 nan
nan 6 8 8 9 11 12 12 12 11 8 9 12 10 7 7 9 8 8 10 9 9 9 10 7 8 8 8 8 9 8 12 16 12 13 11 10 11 12 11 8 7 nan
nan 6 8 9 10 9 10 8 8 12 16 15 10 8 9 10 7 9 9 8 9 8 10 7 8 8 7 9 10 9 11 13 14 11 12 21 22 14 9 7 10 9 nan
nan 7 8 9 9 11 12 10 9 11 10 11 12 9 10 9 7 10 11 9 9 10 10 9 11 10 9 11 10 11 11 10 8 10 9 19 20 9 6 7 8 9 nan
nan 7 9 9 9 10 10 12 13 11 10 10 8 8 8 8 12 12 9 12 11 10 10 13 10 10 11 10 11 12 11 11 9 11 17 18 15 6 2 5 7 8 nan
nan 9 9 9 11 9 13 12 11 11 8 8 8 7 10 14 10 10 11 10 10 11 11 10 9 9 10 11 11 11 11 11 9 12 17 16 16 17 16 11 6 6 nan
nan 10 10 10 11 11 15 13 11 10 9 8 9 11 10 13 13 8 6 7 9 10 8 10 10 9 7 9 11 11 10 9 10 12 13 11 14 16 21 15 15 14 nan
nan 9 9 13 10 16 15 7 7 8 9 12 11 10 12 10 10 11 9 7 6 5 8 8 7 7 8 9 10 10 10 10 10 10 10 10 11 12 11 18 23 11 nan
nan 10 10 14 12 17 8 4 5 6 10 11 10 9 10 13 10 8 13 11 15 16 12 8 7 7 9 8 9 10 10 9 10 9 8 10 9 10 9 13 8 8 nan
nan 11 12 12 12 15 10 4 5 7 10 10 9 9 10 8 13 10 10 11 11 14 13 12 10 8 7 6 7 10 11 13 13 11 11 11 10 9 9 7 7 12 nan
nan 10 14 13 15 14 9 3 4 10 10 10 10 10 15 11 4 8 11 11 11 11 9 6 11 13 13 14 11 10 11 11 11 11 14 14 13 11 9 11 13 15 nan
nan nan nan nan nan nan nan nan nan nan nan nan nan nan nan nan nan nan nan nan nan nan nan nan nan nan nan nan nan nan nan nan nan nan nan nan nan nan nan nan nan nan nan
CAPE
1056 419 480 186 143 61 51 42 40 9 0 0 0 0 0 0 0 0 0 0 0 0 0 0 0 0 0 0 0 0 0 0 0 1 0 88 308 282 198 194 180 203 237
748 299 194 38 173 61 57 10 0 0 0 0 0 0 0 0 0 1 1 0 0 0 0 0 0 0 0 0 0 0 0 0 0 0 1 4 93 216 288 237 178 155 138
103 22 4 36 57 0 0 0 0 0 0 0 0 0 0 0 0 3 0 0 5 0 0 0 0 0 0 0 0 0 0 0 0 0 0 0 3 17 113 211 270 227 160
0 1 0 0 0 0 0 0 0 0 0 0 0 2 0 0 0 0 0 0 9 10 1 0 0 0 0 0 0 0 0 0 0 0 2 1 0 0 3 21 61 239 180
0 0 0 0 0 0 0 0 2 0 3 1 0 0 0 0 0 0 0 0 21 21 19 10 23 2 0 0 0 0 1 13 10 8 8 11 10 2 0 1 2 37 230
0 0 0 0 0 0 0 1 0 0 0 0 0 0 1 0 0 0 8 12 16 10 22 29 14 18 63 2 0 0 12 14 19 30 25 13 14 17 5 1 1 1 40
0 0 0 0 0 0 0 0 0 0 0 0 0 0 0 0 3 0 2 14 1 5 8 21 39 26 18 70 30 30 12 14 26 25 28 26 14 11 12 4 1 0 3
0 0 0 0 0 0 0 0 0 0 0 0 0 0 0 0 0 1 0 3 17 5 22 10 9 17 22 27 33 25 56 18 10 9 5 10 21 20 11 15 8 4 2
0 0 0 0 0 0 0 0 1 6 1 3 5 4 2 2 3 1 6 7 45 19 31 33 28 12 25 18 26 25 21 0 0 0 9 19 28 32 27 17 23 17 9
0 0 0 0 0 1 3 6 4 7 15 13 15 14 17 15 12 9 8 26 48 47 106 58 49 30 14 17 40 71 21 4 0 0 4 37 41 40 41 34 23 29 25
0 0 0 5 7 5 9 12 16 24 34 32 23 24 16 18 24 35 36 33 25 37 63 81 60 37 24 29 59 65 45 25 1 0 0 11 32 65 39 34 34 31 17
0 0 0 0 0 1 18 21 36 54 56 45 62 37 31 35 32 36 41 34 53 20 27 49 81 67 74 78 53 87 68 46 5 0 0 1 13 12 55 44 17 9 28
0 0 0 0 0 0 3 30 44 87 60 64 80 56 34 44 60 53 42 33 60 24 35 58 79 86 32 95 85 105 15 25 28 19 2 16 18 5 12 23 10 1 5
0 0 0 0 0 2 15 46 64 46 78 100 72 68 62 60 60 62 38 68 52 24 30 31 60 85 89 99 71 76 18 39 24 28 29 21 28 5 0 18 3 0 0
0 0 0 0 0 0 20 68 74 57 82 97 99 106 63 64 80 53 46 67 80 75 29 41 75 64 86 80 68 62 60 33 43 38 19 3 0 3 0 11 14 0 0
0 0 0 0 1 7 19 49 55 75 82 102 101 51 43 73 53 45 38 94 71 70 53 39 34 61 47 19 35 59 49 66 44 48 40 20 13 9 10 40 14 0 0
0 1 0 1 9 16 23 43 55 56 83 90 57 35 58 51 44 52 80 56 70 75 77 34 34 30 27 39 30 45 50 61 63 63 61 62 53 62 22 0 0 0 0
2 2 0 5 12 19 17 37 38 29 3 19 28 27 40 27 39 24 24 17 24 23 52 35 11 34 30 23 46 54 47 23 49 47 77 51 34 14 3 0 8 3 0
3 2 2 11 17 25 30 14 25 24 21 27 26 29 24 20 7 5 5 2 2 5 22 26 23 31 33 38 42 42 45 39 39 57 65 42 35 26 30 0 0 9 5
4 3 8 17 25 28 21 22 18 25 25 23 29 18 5 2 1 0 0 1 3 7 10 18 19 36 33 46 48 55 46 71 58 30 37 35 46 3 26 14 14 8 18
1 7 12 19 21 21 8 3 11 7 10 22 22 4 1 0 0 0 0 3 8 9 15 15 32 44 56 44 58 52 61 58 35 87 72 83 94 130 66 39 0 38 1
2 10 16 28 16 13 0 0 0 0 0 6 4 1 0 2 1 0 0 0 6 14 25 72 50 39 19 34 42 61 73 63 44 81 49 93 7 88 43 70 47 0 0
9 20 25 27 29 17 0 0 0 0 0 2 2 1 1 0 1 1 1 3 7 25 8 35 35 45 53 29 32 45 46 59 66 53 55 52 48 43 40 21 1 0 0
19 19 29 28 25 0 0 0 0 0 2 5 4 3 3 3 0 0 0 3 3 5 8 5 17 17 23 23 25 42 42 31 35 48 45 65 72 71 82 62 22 17 0
13 16 17 17 17 0 0 0 0 0 4 5 6 4 0 0 0 0 1 4 3 4 7 14 3 9 19 16 15 45 84 73 87 35 51 60 75 72 97 84 63 14 3
12 15 8 19 4 8 0 0 0 0 5 10 6 3 0 0 0 0 2 4 9 8 1 2 8 14 19 24 14 7 56 64 47 45 34 46 30 30 56 73 77 87 40